Weather History for Venice, FL

Change the Weather History Date:

Wednesday, July 17, 2013

  Actual Average Record
Temperature  
Mean Temperature 79 °F -  
Max Temperature 89 °F 90 °F 93 °F (1961)
Min Temperature 69 °F 73 °F 52 °F (1967)
Cooling Degree Days 14    
Growing Degree Days 29 (Base 50)    
Moisture  
Dew Point 72 °F    
Average Humidity 86    
Maximum Humidity 100    
Minimum Humidity 55    
Precipitation  
Precipitation 0.44 in - - ()
Sea Level Pressure  
Sea Level Pressure 30.11 in    
Wind  
Wind Speed 9 mph (ENE)    
Max Wind Speed 29 mph    
Max Gust Speed 40 mph    
Visibility 10 miles    
Events Rain , Thunderstorm    
Averages and records for this station are not official NWS values.
T = Trace of Precipitation, MM = Missing Value Source: NWS Daily Summary

Daily Weather History Graph

Daily Weather History Graph

Search for Another Location

Airport:

Trip Planner

Search our weather history database for the weather conditions in past years. The results will help you decide how hot, cold, wet, or windy it might be!

Date:

Astronomy

Jul. 17, 2013 Rise Set
Actual Time 6:46 AM EDT 8:25 PM EDT
Civil Twilight 6:20 AM EDT 8:51 PM EDT
Nautical Twilight 5:49 AM EDT 9:22 PM EDT
Astronomical Twilight 5:17 AM EDT 9:54 PM EDT
Moon 3:19 PM EDT (7/17) 1:42 AM EDT (7/17)
Length of Visible Light 14h 30m
Length of Day
13h 39m
Waxing Gibbous, 67% of the Moon is Illuminated
Jul 17
Waxing Gibbous
Jul 22
Full
Jul 29
Last Quarter
Aug 6
New
Aug 14
First Quarter

Hourly Weather History & Observations

Time (EDT) Temp. Heat Index Dew Point Humidity Pressure Visibility Wind Dir Wind Speed Gust Speed Precip Events Conditions
12:15 AM 73.4 °F - 71.6 °F 94% 30.14 in 10.0 mi ENE 8.1 mph - N/A   Clear
12:35 AM 73.4 °F - 71.6 °F 94% 30.14 in 10.0 mi ENE 8.1 mph - N/A   Clear
12:55 AM 73.4 °F - 71.6 °F 94% 30.14 in 10.0 mi ENE 8.1 mph - N/A   Clear
1:15 AM 73.4 °F - 71.6 °F 94% 30.14 in 10.0 mi ENE 9.2 mph - N/A   Clear
1:35 AM 73.4 °F - 71.6 °F 94% 30.14 in 10.0 mi ENE 8.1 mph - N/A   Clear
1:55 AM 73.4 °F - 71.6 °F 94% 30.13 in 10.0 mi ENE 8.1 mph - N/A   Clear
2:15 AM 73.4 °F - 71.6 °F 94% 30.13 in 10.0 mi NE 8.1 mph - N/A   Clear
2:35 AM 73.4 °F - 71.6 °F 94% 30.12 in 10.0 mi NE 6.9 mph - N/A   Clear
2:55 AM 73.4 °F - 71.6 °F 94% 30.12 in 10.0 mi NE 8.1 mph - N/A   Clear
3:15 AM 73.4 °F - 71.6 °F 94% 30.11 in 10.0 mi ENE 6.9 mph - N/A   Clear
3:35 AM 73.4 °F - 71.6 °F 94% 30.10 in 10.0 mi ENE 8.1 mph - N/A   Clear
3:55 AM 73.4 °F - 71.6 °F 94% 30.10 in 10.0 mi ENE 8.1 mph - N/A   Clear
4:15 AM 73.4 °F - 71.6 °F 94% 30.10 in 10.0 mi NE 9.2 mph - N/A   Clear
4:35 AM 73.4 °F - 71.6 °F 94% 30.10 in 10.0 mi NE 9.2 mph - N/A   Clear
4:55 AM 73.4 °F - 71.6 °F 94% 30.10 in 10.0 mi NE 9.2 mph - N/A   Clear
5:15 AM 73.4 °F - 71.6 °F 94% 30.11 in 10.0 mi NE 9.2 mph - N/A   Clear
5:35 AM 73.4 °F - 71.6 °F 94% 30.11 in 10.0 mi NE 10.4 mph - N/A   Clear
5:55 AM 73.4 °F - 71.6 °F 94% 30.11 in 10.0 mi ENE 9.2 mph - N/A   Clear
6:15 AM 73.4 °F - 71.6 °F 94% 30.11 in 10.0 mi NE 6.9 mph - N/A   Clear
6:35 AM 73.4 °F - 71.6 °F 94% 30.11 in 10.0 mi NE 9.2 mph - N/A   Clear
6:55 AM 73.4 °F - 71.6 °F 94% 30.11 in 10.0 mi NE 8.1 mph - N/A   Clear
7:15 AM 73.4 °F - 71.6 °F 94% 30.12 in 10.0 mi NE 8.1 mph - N/A   Clear
7:35 AM 73.4 °F - 73.4 °F 100% 30.14 in 10.0 mi ENE 10.4 mph - N/A   Clear
7:55 AM 75.2 °F - 73.4 °F 94% 30.15 in 10.0 mi ENE 6.9 mph - N/A   Clear
8:15 AM 75.2 °F - 73.4 °F 94% 30.15 in 10.0 mi ENE 10.4 mph - N/A   Clear
8:35 AM 75.2 °F - 73.4 °F 94% 30.15 in 10.0 mi ENE 9.2 mph - N/A   Clear
8:55 AM 77.0 °F - 73.4 °F 89% 30.14 in 10.0 mi East 11.5 mph - N/A   Clear
9:15 AM 78.8 °F - 73.4 °F 83% 30.14 in 10.0 mi ENE 12.7 mph 17.3 mph N/A   Clear
9:35 AM 80.6 °F 85.4 °F 73.4 °F 79% 30.14 in 10.0 mi East 11.5 mph - N/A   Clear
9:55 AM 82.4 °F 87.2 °F 71.6 °F 70% 30.13 in 10.0 mi ENE 13.8 mph 17.3 mph N/A   Clear
10:15 AM 82.4 °F 87.2 °F 71.6 °F 70% 30.12 in 10.0 mi ENE 13.8 mph 20.7 mph N/A   Clear
10:35 AM 84.2 °F 89.6 °F 71.6 °F 66% 30.13 in 10.0 mi East 13.8 mph 17.3 mph N/A   Partly Cloudy
10:55 AM 84.2 °F 89.6 °F 71.6 °F 66% 30.13 in 10.0 mi East 13.8 mph 17.3 mph N/A   Scattered Clouds
11:15 AM 84.2 °F 89.6 °F 71.6 °F 66% 30.13 in 10.0 mi East 15.0 mph 18.4 mph N/A   Scattered Clouds
11:35 AM 86.0 °F 91.8 °F 71.6 °F 62% 30.13 in 10.0 mi East 13.8 mph 18.4 mph N/A   Scattered Clouds
11:55 AM 86.0 °F 91.8 °F 71.6 °F 62% 30.13 in 10.0 mi East 13.8 mph 20.7 mph N/A   Partly Cloudy
12:15 PM 86.0 °F 93.4 °F 73.4 °F 66% 30.13 in 10.0 mi NE 12.7 mph 17.3 mph N/A   Scattered Clouds
12:35 PM 86.0 °F 93.4 °F 73.4 °F 66% 30.13 in 10.0 mi East 11.5 mph - N/A   Partly Cloudy
12:55 PM 87.8 °F 95.6 °F 73.4 °F 62% 30.12 in 10.0 mi ENE 16.1 mph 21.9 mph N/A   Partly Cloudy
1:15 PM 87.8 °F 93.8 °F 71.6 °F 58% 30.11 in 10.0 mi East 12.7 mph 17.3 mph N/A   Scattered Clouds
1:35 PM 87.8 °F 93.8 °F 71.6 °F 58% 30.12 in 10.0 mi East 12.7 mph 20.7 mph N/A   Mostly Cloudy
1:55 PM 86.0 °F 93.4 °F 73.4 °F 66% 30.11 in 10.0 mi ENE 12.7 mph - N/A   Partly Cloudy
2:15 PM 89.6 °F 96.2 °F 71.6 °F 55% 30.09 in 10.0 mi ESE 10.4 mph 20.7 mph N/A   Partly Cloudy
2:35 PM 86.0 °F 91.8 °F 71.6 °F 62% 30.09 in 10.0 mi ESE 11.5 mph 16.1 mph N/A   Mostly Cloudy
2:55 PM 86.0 °F 89.4 °F 68.0 °F 55% 30.08 in 10.0 mi ESE 12.7 mph 20.7 mph N/A Thunderstorm Mostly Cloudy
3:15 PM 86.0 °F 91.8 °F 71.6 °F 62% 30.08 in 10.0 mi SE 11.5 mph 23.0 mph N/A Thunderstorm Mostly Cloudy
3:35 PM 82.4 °F 86.3 °F 69.8 °F 66% 30.12 in 9.0 mi East 28.8 mph 40.3 mph N/A Thunderstorm Overcast
3:55 PM 69.8 °F - 68.0 °F 94% 30.13 in - East 10.4 mph - 0.38 in Rain , Thunderstorm Heavy Thunderstorms and Rain
4:15 PM 71.6 °F - 69.8 °F 94% 30.11 in 1.2 mi East 9.2 mph - 0.02 in Rain , Thunderstorm Light Rain
4:35 PM 73.4 °F - 71.6 °F 94% 30.09 in 1.8 mi East 10.4 mph - 0.06 in Rain , Thunderstorm Rain
4:55 PM 73.4 °F - 71.6 °F 94% 30.08 in 3.0 mi ENE 10.4 mph - 0.06 in Rain , Thunderstorm Light Rain
5:15 PM 73.4 °F - 71.6 °F 94% 30.07 in 8.0 mi NE 8.1 mph - N/A   Clear
5:35 PM 73.4 °F - 71.6 °F 94% 30.08 in 10.0 mi NE 8.1 mph - N/A   Clear
5:55 PM 75.2 °F - 71.6 °F 89% 30.08 in 10.0 mi NE 8.1 mph - N/A   Clear
6:15 PM 75.2 °F - 71.6 °F 89% 30.08 in 10.0 mi NE 9.2 mph - N/A   Clear
6:35 PM 75.2 °F - 71.6 °F 89% 30.08 in 10.0 mi NE 8.1 mph - N/A   Clear
6:55 PM 75.2 °F - 71.6 °F 89% 30.09 in 10.0 mi NE 6.9 mph - N/A   Clear
7:15 PM 75.2 °F - 71.6 °F 89% 30.09 in 10.0 mi ENE 8.1 mph - N/A   Clear
7:35 PM 75.2 °F - 71.6 °F 89% 30.09 in 10.0 mi ENE 6.9 mph - N/A   Clear
7:55 PM 73.4 °F - 71.6 °F 94% 30.09 in 10.0 mi ENE 8.1 mph - N/A   Clear
8:15 PM 73.4 °F - 71.6 °F 94% 30.09 in 10.0 mi ENE 5.8 mph - N/A   Clear
8:35 PM 73.4 °F - 71.6 °F 94% 30.10 in 10.0 mi ENE 8.1 mph - N/A   Clear
8:55 PM 73.4 °F - 73.4 °F 100% 30.10 in 10.0 mi ENE 8.1 mph - N/A   Clear
9:15 PM 73.4 °F - 73.4 °F 100% 30.10 in 10.0 mi ENE 9.2 mph - N/A   Clear
9:35 PM 75.2 °F - 73.4 °F 94% 30.10 in 10.0 mi ENE 9.2 mph - N/A   Clear
9:55 PM 73.4 °F - 73.4 °F 100% 30.11 in 10.0 mi ENE 6.9 mph - N/A   Clear
10:15 PM 73.4 °F - 73.4 °F 100% 30.11 in 10.0 mi ENE 8.1 mph - N/A   Clear
10:35 PM 75.2 °F - 73.4 °F 94% 30.10 in 10.0 mi East 9.2 mph - N/A   Clear
10:55 PM 73.4 °F - 73.4 °F 100% 30.10 in 10.0 mi East 6.9 mph - N/A   Clear
11:15 PM 75.2 °F - 73.4 °F 94% 30.11 in 10.0 mi East 6.9 mph - N/A   Clear
11:35 PM 75.2 °F - 73.4 °F 94% 30.11 in 10.0 mi East 6.9 mph - N/A   Clear
11:55 PM 75.2 °F - 73.4 °F 94% 30.11 in 10.0 mi ENE 5.8 mph - N/A   Clear